| time (UTC) | temp F | wind direction | speed MPH | gust MPH | rain 1hr in | rain 24hr in | rain mn in | humidity % | barometer mb |
| 20260507090231 | 42 | 261 | 2.0 | 3.0 | 0.00 | 0.00 | 0.00 | 79 | 1014.6 |
| 20260507085726 | 42 | 261 | 2.0 | 3.0 | 0.00 | 0.00 | 0.00 | 79 | 1014.6 |
| 20260507085721 | 42 | 261 | 2.0 | 3.0 | 0.00 | 0.00 | 0.00 | 79 | 1014.6 |
| 20260507084713 | 42 | 261 | 1.0 | 2.0 | 0.00 | 0.00 | 0.00 | 79 | 1014.7 |
| 20260507084308 | 42 | 261 | 2.0 | 3.0 | 0.00 | 0.00 | 0.00 | 78 | 1014.6 |
| 20260507083155 | 42 | 261 | 2.0 | 4.0 | 0.00 | 0.00 | 0.00 | 78 | 1014.5 |
| 20260507082650 | 42 | 261 | 2.0 | 4.0 | 0.00 | 0.00 | 0.00 | 78 | 1014.5 |
| 20260507082144 | 43 | 261 | 2.0 | 4.0 | 0.00 | 0.00 | 0.00 | 77 | 1014.5 |
| 20260507081637 | 43 | 261 | 2.0 | 4.0 | 0.00 | 0.01 | 0.00 | 77 | 1014.5 |
| 20260507081131 | 43 | 261 | 2.0 | 4.0 | 0.00 | 0.01 | 0.00 | 77 | 1014.5 |
| 20260507080856 | 43 | 261 | 2.0 | 7.0 | 0.00 | 0.01 | 0.00 | 77 | 1014.5 |
| 20260507080119 | 43 | 262 | 3.0 | 7.0 | 0.00 | 0.01 | 0.00 | 76 | 1014.6 |
| 20260507075613 | 44 | 262 | 3.0 | 7.0 | 0.00 | 0.01 | 0.00 | 76 | 1014.6 |
| 20260507075107 | 44 | 262 | 2.0 | 6.0 | 0.00 | 0.01 | 0.00 | 76 | 1014.5 |
| 20260507074602 | 44 | 266 | 2.0 | 6.0 | 0.00 | 0.01 | 0.00 | 76 | 1014.5 |
| 20260507074558 | 44 | 267 | 3.0 | 6.0 | 0.00 | 0.01 | 0.00 | 76 | 1014.5 |
| 20260507073552 | 44 | 274 | 2.0 | 6.0 | 0.00 | 0.01 | 0.00 | 76 | 1014.5 |
| 20260507073051 | 44 | 271 | 3.0 | 6.0 | 0.00 | 0.01 | 0.00 | 76 | 1014.7 |
| 20260507072552 | 44 | 0 | 3.0 | 6.0 | 0.00 | 0.01 | 0.00 | 76 | 1014.6 |
| 20260507072324 | 44 | 267 | 4.0 | 8.0 | 0.00 | 0.01 | 0.00 | 76 | 1014.6 |
| 20260507071552 | 44 | 261 | 4.0 | 8.0 | 0.00 | 0.02 | 0.00 | 76 | 1014.5 |
| 20260507071052 | 45 | 259 | 4.0 | 8.0 | 0.00 | 0.02 | 0.00 | 76 | 1014.5 |
| 20260507070554 | 45 | 268 | 4.0 | 7.0 | 0.00 | 0.02 | 0.00 | 77 | 1014.6 |
| 20260507070052 | 45 | 251 | 4.0 | 7.0 | 0.00 | 0.02 | 0.00 | 77 | 1014.5 |
| 20260507065823 | 45 | 245 | 4.0 | 7.0 | 0.00 | 0.03 | 0.00 | 77 | 1014.6 |
| 20260507065052 | 45 | 0 | 3.0 | 7.0 | 0.00 | 0.03 | 0.00 | 77 | 1014.7 |
| 20260507064552 | 45 | 263 | 3.0 | 6.0 | 0.00 | 0.04 | 0.00 | 77 | 1014.6 |
| 20260507064052 | 45 | 0 | 4.0 | 7.0 | 0.00 | 0.04 | 0.00 | 77 | 1014.6 |
| 20260507063822 | 45 | 265 | 3.0 | 7.0 | 0.00 | 0.04 | 0.00 | 77 | 1014.6 |
| 20260507063052 | 45 | 262 | 3.0 | 6.0 | 0.00 | 0.05 | 0.00 | 77 | 1014.6 |
| 20260507062551 | 45 | 0 | 3.0 | 6.0 | 0.00 | 0.05 | 0.00 | 77 | 1014.7 |
| 20260507062051 | 45 | 274 | 3.0 | 6.0 | 0.00 | 0.05 | 0.00 | 77 | 1014.7 |
| 20260507061816 | 45 | 0 | 3.0 | 6.0 | 0.00 | 0.06 | 0.00 | 78 | 1014.8 |
| 20260507061318 | 45 | 255 | 3.0 | 6.0 | 0.00 | 0.06 | 0.00 | 78 | 1014.7 |
| 20260507060545 | 45 | 256 | 3.0 | 6.0 | 0.00 | 0.06 | 0.00 | 79 | 1014.7 |
| 20260507060318 | 45 | 0 | 3.0 | 4.0 | 0.00 | 0.06 | 0.00 | 80 | 1014.7 |
| 20260507055544 | 45 | 255 | 3.0 | 4.0 | 0.00 | 0.06 | 0.00 | 80 | 1014.7 |
| 20260507055313 | 45 | 255 | 2.0 | 6.0 | 0.00 | 0.07 | 0.00 | 81 | 1014.7 |
| 20260507054814 | 45 | 256 | 3.0 | 6.0 | 0.00 | 0.07 | 0.00 | 82 | 1014.8 |
| 20260507054039 | 44 | 257 | 3.0 | 5.0 | 0.00 | 0.07 | 0.00 | 83 | 1014.8 |
| 20260507053539 | 44 | 304 | 2.0 | 4.0 | 0.00 | 0.07 | 0.00 | 83 | 1014.8 |
| 20260507053039 | 44 | 311 | 2.0 | 4.0 | 0.00 | 0.08 | 0.00 | 84 | 1014.8 |
| 20260507052540 | 44 | 331 | 1.0 | 3.0 | 0.00 | 0.09 | 0.00 | 84 | 1014.7 |
| 20260507052040 | 44 | 333 | 0.0 | 2.0 | 0.00 | 0.09 | 0.00 | 84 | 1014.8 |
| 20260507051810 | 44 | 333 | 0.0 | 0.0 | 0.00 | 0.10 | 0.00 | 84 | 1014.7 |
| 20260507051036 | 44 | 334 | 0.0 | 4.0 | 0.00 | 0.11 | 0.00 | 83 | 1014.8 |
| 20260507050536 | 44 | 334 | 0.0 | 4.0 | 0.00 | 0.11 | 0.00 | 83 | 1014.7 |
| 20260507050036 | 44 | 335 | 1.0 | 4.0 | 0.00 | 0.12 | 0.00 | 83 | 1014.8 |
| 20260507045536 | 45 | 335 | 1.0 | 4.0 | 0.00 | 0.12 | 0.00 | 82 | 1014.9 |
| 20260507045035 | 45 | 335 | 0.0 | 2.0 | 0.00 | 0.12 | 0.00 | 81 | 1014.8 |
| 20260507044536 | 45 | 0 | 1.0 | 2.0 | 0.00 | 0.13 | 0.00 | 81 | 1014.8 |
| 20260507044035 | 45 | 335 | 1.0 | 2.0 | 0.00 | 0.13 | 0.00 | 80 | 1014.8 |
| 20260507043535 | 46 | 334 | 1.0 | 2.0 | 0.00 | 0.13 | 0.00 | 80 | 1014.9 |
| 20260507043035 | 46 | 335 | 0.0 | 2.0 | 0.00 | 0.13 | 0.00 | 79 | 1014.8 |
| 20260507042536 | 46 | 0 | 0.0 | 4.0 | 0.00 | 0.13 | 0.00 | 79 | 1014.8 |
| 20260507042036 | 46 | 336 | 1.0 | 4.0 | 0.00 | 0.14 | 0.00 | 78 | 1014.8 |
| 20260507041536 | 46 | 336 | 1.0 | 4.0 | 0.00 | 0.14 | 0.00 | 77 | 1014.8 |
| 20260507041036 | 47 | 336 | 1.0 | 4.0 | 0.00 | 0.14 | 0.00 | 77 | 1014.8 |
| 20260507040536 | 47 | 232 | 1.0 | 3.0 | 0.00 | 0.14 | 0.00 | 76 | 1014.8 |
| 20260507040035 | 47 | 232 | 1.0 | 5.0 | 0.00 | 0.15 | 0.00 | 76 | 1014.9 |
| 20260507035535 | 47 | 232 | 2.0 | 5.0 | 0.00 | 0.15 | 0.15 | 76 | 1014.8 |
| 20260507035035 | 47 | 232 | 3.0 | 5.0 | 0.00 | 0.15 | 0.15 | 76 | 1014.7 |
| 20260507034804 | 47 | 232 | 2.0 | 5.0 | 0.00 | 0.16 | 0.15 | 75 | 1014.7 |
| 20260507034031 | 47 | 240 | 2.0 | 5.0 | 0.00 | 0.16 | 0.15 | 75 | 1014.8 |
| 20260507033530 | 47 | 240 | 3.0 | 5.0 | 0.00 | 0.16 | 0.15 | 75 | 1014.8 |
| 20260507033029 | 47 | 240 | 2.0 | 5.0 | 0.00 | 0.17 | 0.15 | 75 | 1014.7 |
| 20260507032527 | 47 | 250 | 2.0 | 4.0 | 0.00 | 0.17 | 0.15 | 74 | 1014.8 |
| 20260507032027 | 48 | 250 | 3.0 | 4.0 | 0.00 | 0.17 | 0.15 | 74 | 1014.8 |
| 20260507031756 | 48 | 251 | 3.0 | 4.0 | 0.00 | 0.17 | 0.15 | 74 | 1014.9 |
| 20260507030525 | 48 | 265 | 2.0 | 4.0 | 0.00 | 0.18 | 0.15 | 73 | 1014.9 |
| 20260507030025 | 48 | 265 | 2.0 | 4.0 | 0.00 | 0.18 | 0.15 | 73 | 1014.9 |
| 20260507025524 | 48 | 265 | 2.0 | 4.0 | 0.00 | 0.18 | 0.15 | 73 | 1014.9 |
| 20260507025025 | 48 | 265 | 1.0 | 3.0 | 0.00 | 0.19 | 0.15 | 72 | 1015.0 |
| 20260507024523 | 48 | 266 | 1.0 | 2.0 | 0.00 | 0.20 | 0.15 | 73 | 1015.0 |
| 20260507024022 | 48 | 266 | 1.0 | 2.0 | 0.00 | 0.21 | 0.15 | 73 | 1015.0 |
| 20260507023522 | 48 | 266 | 1.0 | 2.0 | 0.00 | 0.22 | 0.15 | 73 | 1015.0 |
| 20260507023020 | 48 | 266 | 1.0 | 2.0 | 0.00 | 0.23 | 0.15 | 75 | 1015.1 |
| 20260507022518 | 48 | 265 | 1.0 | 2.0 | 0.00 | 0.24 | 0.15 | 75 | 1015.0 |
| 20260507022251 | 47 | 0 | 1.0 | 2.0 | 0.00 | 0.25 | 0.15 | 76 | 1015.1 |
| 20260507021514 | 47 | 0 | 1.0 | 2.0 | 0.00 | 0.26 | 0.15 | 77 | 1015.0 |
| 20260507021008 | 47 | 0 | 0.0 | 2.0 | 0.00 | 0.27 | 0.15 | 80 | 1015.0 |
| 20260507020733 | 47 | 0 | 0.0 | 0.0 | 0.00 | 0.27 | 0.15 | 81 | 1015.0 |
| 20260507015956 | 47 | 0 | 0.0 | 0.0 | 0.00 | 0.28 | 0.15 | 79 | 1015.0 |
| 20260507015449 | 47 | 0 | 0.0 | 0.0 | 0.00 | 0.29 | 0.15 | 79 | 1014.9 |
| 20260507014944 | 47 | 0 | 0.0 | 0.0 | 0.00 | 0.30 | 0.15 | 78 | 1014.9 |
| 20260507014438 | 47 | 0 | 0.0 | 0.0 | 0.00 | 0.31 | 0.15 | 77 | 1014.8 |
| 20260507013932 | 47 | 0 | 0.0 | 0.0 | 0.00 | 0.32 | 0.15 | 75 | 1014.8 |
| 20260507013658 | 48 | 0 | 0.0 | 0.0 | 0.00 | 0.34 | 0.15 | 75 | 1014.8 |
| 20260507012920 | 48 | 0 | 0.0 | 0.0 | 0.00 | 0.34 | 0.15 | 76 | 1014.7 |
| 20260507012414 | 48 | 0 | 0.0 | 0.0 | 0.00 | 0.35 | 0.15 | 75 | 1014.5 |
| 20260507011908 | 49 | 0 | 0.0 | 0.0 | 0.00 | 0.36 | 0.15 | 75 | 1014.5 |
| 20260507011402 | 49 | 0 | 0.0 | 1.0 | 0.00 | 0.36 | 0.15 | 73 | 1014.5 |
| 20260507010856 | 49 | 0 | 0.0 | 1.0 | 0.00 | 0.36 | 0.15 | 70 | 1014.5 |
| 20260507010350 | 50 | 0 | 0.0 | 1.0 | 0.00 | 0.37 | 0.15 | 72 | 1014.5 |
| 20260507005844 | 50 | 0 | 0.0 | 1.0 | 0.00 | 0.38 | 0.15 | 73 | 1014.5 |
| 20260507005339 | 51 | 0 | 0.0 | 1.0 | 0.00 | 0.38 | 0.15 | 70 | 1014.5 |
| 20260507004832 | 51 | 0 | 0.0 | 2.0 | 0.00 | 0.39 | 0.15 | 68 | 1014.4 |
| 20260507004556 | 52 | 0 | 0.0 | 2.0 | 0.00 | 0.39 | 0.15 | 67 | 1014.5 |
| 20260507004050 | 52 | 0 | 0.0 | 2.0 | 0.00 | 0.40 | 0.15 | 64 | 1014.3 |
| 20260507003314 | 52 | 0 | 1.0 | 6.0 | 0.00 | 0.41 | 0.15 | 61 | 1014.3 |
| 20260507002809 | 52 | 0 | 2.0 | 6.0 | 0.00 | 0.41 | 0.15 | 60 | 1014.3 |
| 20260507002533 | 52 | 0 | 2.0 | 6.0 | 0.00 | 0.42 | 0.15 | 60 | 1014.3 |
| 20260507001756 | 53 | 266 | 3.0 | 5.0 | 0.00 | 0.42 | 0.15 | 59 | 1014.4 |
| 20260507001250 | 53 | 0 | 3.0 | 6.0 | 0.00 | 0.43 | 0.15 | 59 | 1014.3 |
| 20260507000744 | 53 | 268 | 3.0 | 7.0 | 0.00 | 0.43 | 0.15 | 58 | 1014.3 |
| 20260507000238 | 54 | 269 | 4.0 | 7.0 | 0.00 | 0.44 | 0.15 | 58 | 1014.3 |
| 20260506235732 | 54 | 243 | 3.0 | 7.0 | 0.00 | 0.44 | 0.15 | 57 | 1014.3 |
| 20260506235226 | 55 | 285 | 2.0 | 5.0 | 0.00 | 0.44 | 0.15 | 57 | 1014.2 |
| 20260506234721 | 55 | 285 | 3.0 | 5.0 | 0.00 | 0.45 | 0.15 | 56 | 1014.3 |
| 20260506234214 | 55 | 302 | 2.0 | 5.0 | 0.00 | 0.45 | 0.15 | 55 | 1014.2 |
| 20260506233708 | 55 | 310 | 2.0 | 4.0 | 0.00 | 0.45 | 0.15 | 55 | 1014.3 |
| 20260506233206 | 55 | 310 | 2.0 | 4.0 | 0.00 | 0.45 | 0.15 | 55 | 1014.3 |
| 20260506232707 | 54 | 310 | 2.0 | 4.0 | 0.00 | 0.45 | 0.15 | 56 | 1014.3 |
| 20260506232205 | 53 | 310 | 2.0 | 4.0 | 0.00 | 0.46 | 0.15 | 57 | 1014.4 |
| 20260506231707 | 53 | 315 | 1.0 | 3.0 | 0.00 | 0.46 | 0.15 | 58 | 1014.4 |
| 20260506231206 | 53 | 315 | 1.0 | 4.0 | 0.00 | 0.46 | 0.15 | 59 | 1014.5 |
| 20260506230705 | 53 | 316 | 2.0 | 4.0 | 0.00 | 0.46 | 0.15 | 58 | 1014.5 |
| 20260506230205 | 53 | 316 | 2.0 | 4.0 | 0.00 | 0.47 | 0.15 | 59 | 1014.5 |
| 20260506225706 | 53 | 316 | 2.0 | 4.0 | 0.00 | 0.47 | 0.15 | 57 | 1014.6 |
| 20260506225206 | 53 | 322 | 2.0 | 4.0 | 0.00 | 0.48 | 0.15 | 60 | 1014.5 |
| 20260506224706 | 53 | 322 | 2.0 | 4.0 | 0.00 | 0.49 | 0.15 | 58 | 1014.5 |
| 20260506224206 | 53 | 321 | 2.0 | 6.0 | 0.00 | 0.49 | 0.15 | 57 | 1014.6 |
| 20260506223705 | 53 | 320 | 3.0 | 6.0 | 0.00 | 0.49 | 0.15 | 58 | 1014.5 |
| 20260506223208 | 53 | 0 | 3.0 | 8.0 | 0.00 | 0.49 | 0.15 | 57 | 1014.6 |
| 20260506222704 | 53 | 0 | 4.0 | 8.0 | 0.00 | 0.49 | 0.15 | 56 | 1014.6 |
| 20260506222203 | 53 | 327 | 4.0 | 8.0 | 0.00 | 0.50 | 0.15 | 58 | 1014.5 |
| 20260506221704 | 53 | 333 | 4.0 | 8.0 | 0.00 | 0.50 | 0.15 | 57 | 1014.5 |
| 20260506221159 | 53 | 321 | 3.0 | 7.0 | 0.00 | 0.50 | 0.15 | 57 | 1014.5 |
| 20260506220659 | 53 | 334 | 3.0 | 10.0 | 0.00 | 0.50 | 0.15 | 59 | 1014.4 |
| 20260506220157 | 53 | 324 | 4.0 | 10.0 | 0.00 | 0.51 | 0.15 | 58 | 1014.4 |
| 20260506215657 | 53 | 303 | 5.0 | 10.0 | 0.00 | 0.52 | 0.15 | 57 | 1014.5 |
| 20260506215158 | 53 | 300 | 5.0 | 10.0 | 0.00 | 0.52 | 0.15 | 56 | 1014.4 |
| 20260506214929 | 53 | 0 | 4.0 | 10.0 | 0.00 | 0.54 | 0.15 | 56 | 1014.4 |
| 20260506214158 | 53 | 316 | 5.0 | 11.0 | 0.00 | 0.54 | 0.15 | 57 | 1014.4 |
| 20260506213659 | 54 | 0 | 5.0 | 11.0 | 0.00 | 0.54 | 0.15 | 56 | 1014.3 |
| 20260506213158 | 54 | 0 | 5.0 | 9.0 | 0.00 | 0.54 | 0.15 | 55 | 1014.4 |
| 20260506212658 | 54 | 0 | 5.0 | 12.0 | 0.00 | 0.54 | 0.15 | 54 | 1014.3 |
| 20260506212158 | 54 | 323 | 5.0 | 12.0 | 0.00 | 0.54 | 0.15 | 55 | 1014.2 |
| 20260506211929 | 54 | 280 | 7.0 | 12.0 | 0.00 | 0.54 | 0.15 | 57 | 1014.0 |
| 20260506211153 | 54 | 261 | 8.0 | 12.0 | 0.00 | 0.54 | 0.15 | 58 | 1013.8 |
| 20260506210654 | 54 | 256 | 7.0 | 12.0 | 0.00 | 0.54 | 0.15 | 58 | 1013.9 |
| 20260506210153 | 54 | 265 | 7.0 | 12.0 | 0.00 | 0.55 | 0.15 | 58 | 1013.8 |
| 20260506205653 | 54 | 258 | 7.0 | 12.0 | 0.00 | 0.55 | 0.15 | 59 | 1013.9 |
| 20260506205154 | 54 | 269 | 7.0 | 13.0 | 0.00 | 0.56 | 0.15 | 59 | 1013.9 |
| 20260506204654 | 54 | 236 | 5.0 | 13.0 | 0.00 | 0.57 | 0.15 | 60 | 1013.9 |
| 20260506204153 | 54 | 240 | 6.0 | 11.0 | 0.00 | 0.57 | 0.15 | 60 | 1013.8 |
| 20260506203654 | 54 | 266 | 6.0 | 11.0 | 0.00 | 0.58 | 0.15 | 58 | 1013.9 |
| 20260506203154 | 54 | 251 | 6.0 | 11.0 | 0.00 | 0.59 | 0.15 | 58 | 1013.8 |
| 20260506202921 | 54 | 318 | 5.0 | 10.0 | 0.00 | 0.60 | 0.15 | 58 | 1014.0 |
| 20260506202421 | 54 | 245 | 4.0 | 10.0 | 0.00 | 0.61 | 0.15 | 58 | 1014.0 |
| 20260506201649 | 54 | 0 | 5.0 | 10.0 | 0.00 | 0.63 | 0.15 | 59 | 1014.0 |
| 20260506201149 | 54 | 0 | 5.0 | 10.0 | 0.00 | 0.64 | 0.15 | 58 | 1014.0 |
| 20260506200650 | 53 | 0 | 5.0 | 12.0 | 0.00 | 0.65 | 0.15 | 58 | 1014.0 |
| 20260506200150 | 53 | 0 | 6.0 | 12.0 | 0.00 | 0.66 | 0.15 | 58 | 1014.0 |
| 20260506195650 | 53 | 0 | 7.0 | 12.0 | 0.00 | 0.67 | 0.15 | 58 | 1014.2 |
| 20260506195150 | 53 | 240 | 6.0 | 12.0 | 0.00 | 0.68 | 0.15 | 57 | 1014.3 |
| 20260506194920 | 53 | 255 | 5.0 | 11.0 | 0.00 | 0.69 | 0.15 | 58 | 1014.2 |
| 20260506194146 | 54 | 272 | 4.0 | 11.0 | 0.00 | 0.70 | 0.15 | 59 | 1014.0 |
| 20260506193645 | 53 | 236 | 5.0 | 11.0 | 0.00 | 0.70 | 0.15 | 58 | 1014.0 |
| 20260506193144 | 53 | 250 | 6.0 | 11.0 | 0.00 | 0.71 | 0.15 | 57 | 1014.0 |
| 20260506192644 | 53 | 252 | 6.0 | 11.0 | 0.00 | 0.71 | 0.15 | 57 | 1014.0 |
| 20260506192148 | 53 | 315 | 6.0 | 11.0 | 0.00 | 0.72 | 0.15 | 58 | 1013.9 |
| 20260506192142 | 53 | 248 | 5.0 | 11.0 | 0.00 | 0.71 | 0.15 | 58 | 1014.0 |
| 20260506191410 | 53 | 260 | 5.0 | 11.0 | 0.00 | 0.73 | 0.15 | 58 | 1013.9 |
| 20260506190909 | 53 | 302 | 5.0 | 10.0 | 0.00 | 0.74 | 0.15 | 57 | 1014.2 |
| 20260506190136 | 53 | 285 | 4.0 | 11.0 | 0.00 | 0.74 | 0.15 | 56 | 1014.2 |
| 20260506185636 | 53 | 270 | 4.0 | 11.0 | 0.00 | 0.75 | 0.15 | 56 | 1014.0 |
| 20260506185138 | 53 | 261 | 6.0 | 11.0 | 0.00 | 0.77 | 0.15 | 54 | 1014.2 |
| 20260506185133 | 53 | 324 | 6.0 | 11.0 | 0.00 | 0.76 | 0.15 | 55 | 1014.0 |
| 20260506184133 | 53 | 308 | 6.0 | 14.0 | 0.00 | 0.77 | 0.15 | 57 | 1014.2 |
| 20260506183633 | 53 | 317 | 5.0 | 14.0 | 0.00 | 0.78 | 0.15 | 56 | 1014.4 |
| 20260506183133 | 53 | 325 | 6.0 | 14.0 | 0.00 | 0.79 | 0.15 | 56 | 1014.3 |
| 20260506182902 | 54 | 273 | 7.0 | 14.0 | 0.00 | 0.80 | 0.15 | 55 | 1014.2 |
| 20260506182130 | 54 | 277 | 6.0 | 13.0 | 0.00 | 0.80 | 0.15 | 57 | 1014.2 |
| 20260506181625 | 54 | 282 | 5.0 | 11.0 | 0.00 | 0.81 | 0.15 | 56 | 1014.0 |
| 20260506181119 | 54 | 294 | 5.0 | 11.0 | 0.00 | 0.82 | 0.15 | 56 | 1013.8 |
| 20260506180613 | 54 | 316 | 6.0 | 11.0 | 0.00 | 0.82 | 0.15 | 56 | 1013.8 |
| 20260506180106 | 53 | 338 | 6.0 | 11.0 | 0.00 | 0.82 | 0.15 | 55 | 1014.0 |
| 20260506175601 | 54 | 331 | 6.0 | 11.0 | 0.00 | 0.82 | 0.15 | 56 | 1014.0 |
| 20260506175055 | 54 | 301 | 6.0 | 11.0 | 0.00 | 0.82 | 0.15 | 55 | 1014.0 |
| 20260506174820 | 54 | 329 | 5.0 | 11.0 | 0.00 | 0.82 | 0.15 | 56 | 1014.0 |
| 20260506174043 | 54 | 282 | 6.0 | 12.0 | 0.00 | 0.82 | 0.15 | 55 | 1014.0 |
| 20260506173537 | 54 | 311 | 5.0 | 12.0 | 0.00 | 0.82 | 0.15 | 55 | 1014.0 |
| 20260506173031 | 54 | 331 | 5.0 | 12.0 | 0.00 | 0.83 | 0.15 | 54 | 1014.0 |
| 20260506172755 | 54 | 333 | 6.0 | 15.0 | 0.00 | 0.83 | 0.15 | 56 | 1013.9 |
| 20260506172018 | 55 | 327 | 6.0 | 15.0 | 0.00 | 0.83 | 0.15 | 57 | 1014.0 |
| 20260506171513 | 55 | 312 | 5.0 | 11.0 | 0.00 | 0.84 | 0.15 | 59 | 1013.9 |
| 20260506171006 | 54 | 289 | 5.0 | 11.0 | 0.00 | 0.84 | 0.15 | 59 | 1013.9 |
| 20260506170500 | 54 | 286 | 5.0 | 11.0 | 0.00 | 0.85 | 0.15 | 58 | 1014.0 |
| 20260506165955 | 53 | 329 | 5.0 | 11.0 | 0.00 | 0.85 | 0.15 | 57 | 1014.0 |
| 20260506165449 | 53 | 337 | 6.0 | 11.0 | 0.00 | 0.85 | 0.15 | 55 | 1014.2 |
| 20260506164943 | 54 | 271 | 6.0 | 13.0 | 0.00 | 0.86 | 0.15 | 57 | 1014.3 |
| 20260506164437 | 54 | 299 | 5.0 | 13.0 | 0.00 | 0.86 | 0.15 | 58 | 1014.3 |
| 20260506163930 | 54 | 53 | 7.0 | 13.0 | 0.00 | 0.86 | 0.15 | 56 | 1014.3 |
| 20260506163424 | 54 | 318 | 6.0 | 13.0 | 0.00 | 0.86 | 0.15 | 57 | 1014.3 |
| 20260506162919 | 54 | 32 | 5.0 | 12.0 | 0.00 | 0.86 | 0.15 | 59 | 1014.0 |
| 20260506162413 | 53 | 336 | 6.0 | 12.0 | 0.00 | 0.87 | 0.15 | 57 | 1014.0 |
| 20260506161907 | 53 | 311 | 5.0 | 11.0 | 0.00 | 0.87 | 0.15 | 58 | 1013.8 |
| 20260506161401 | 54 | 332 | 5.0 | 11.0 | 0.00 | 0.87 | 0.15 | 59 | 1014.0 |
| 20260506161132 | 53 | 312 | 4.0 | 10.0 | 0.00 | 0.87 | 0.15 | 63 | 1014.4 |
| 20260506160621 | 53 | 327 | 4.0 | 10.0 | 0.00 | 0.88 | 0.15 | 60 | 1014.4 |
| 20260506155842 | 53 | 272 | 6.0 | 12.0 | 0.00 | 0.89 | 0.15 | 58 | 1014.3 |
| 20260506155337 | 53 | 330 | 6.0 | 12.0 | 0.00 | 0.89 | 0.15 | 59 | 1014.2 |
| 20260506154830 | 53 | 327 | 5.0 | 12.0 | 0.00 | 0.89 | 0.15 | 59 | 1014.2 |
| 20260506154600 | 52 | 300 | 5.0 | 12.0 | 0.00 | 0.89 | 0.15 | 61 | 1014.2 |
| 20260506153829 | 52 | 298 | 5.0 | 12.0 | 0.00 | 0.89 | 0.15 | 60 | 1013.9 |
| 20260506153329 | 53 | 350 | 5.0 | 11.0 | 0.00 | 0.89 | 0.15 | 61 | 1013.9 |
| 20260506152829 | 53 | 336 | 4.0 | 11.0 | 0.00 | 0.89 | 0.15 | 62 | 1013.9 |
| 20260506152328 | 53 | 324 | 4.0 | 11.0 | 0.00 | 0.89 | 0.15 | 65 | 1013.9 |
| 20260506151829 | 52 | 324 | 6.0 | 11.0 | 0.00 | 0.89 | 0.15 | 65 | 1013.9 |
| 20260506151329 | 52 | 51 | 6.0 | 11.0 | 0.00 | 0.89 | 0.15 | 68 | 1013.7 |
| 20260506150828 | 52 | 315 | 6.0 | 14.0 | 0.00 | 0.89 | 0.15 | 70 | 1013.5 |
| 20260506150327 | 51 | 280 | 6.0 | 14.0 | 0.00 | 0.89 | 0.15 | 66 | 1013.6 |
| 20260506145827 | 51 | 321 | 6.0 | 14.0 | 0.00 | 0.89 | 0.15 | 70 | 1013.4 |
| 20260506145327 | 51 | 318 | 6.0 | 14.0 | 0.00 | 0.89 | 0.15 | 68 | 1013.5 |
| 20260506144827 | 51 | 0 | 4.0 | 14.0 | 0.00 | 0.89 | 0.15 | 69 | 1013.5 |
| 20260506144327 | 51 | 333 | 4.0 | 14.0 | 0.00 | 0.89 | 0.15 | 69 | 1013.4 |
| 20260506143828 | 51 | 329 | 5.0 | 12.0 | 0.00 | 0.89 | 0.15 | 72 | 1013.3 |
| 20260506143327 | 51 | 313 | 6.0 | 12.0 | 0.00 | 0.89 | 0.15 | 72 | 1013.4 |
| 20260506142827 | 51 | 295 | 5.0 | 12.0 | 0.00 | 0.89 | 0.15 | 71 | 1013.4 |
| 20260506142326 | 50 | 323 | 5.0 | 11.0 | 0.00 | 0.89 | 0.15 | 73 | 1013.6 |
| 20260506141821 | 50 | 333 | 4.0 | 11.0 | 0.00 | 0.89 | 0.15 | 74 | 1013.4 |
| 20260506141315 | 49 | 330 | 5.0 | 11.0 | 0.00 | 0.89 | 0.15 | 74 | 1013.3 |
| 20260506140815 | 49 | 329 | 6.0 | 11.0 | 0.00 | 0.89 | 0.15 | 74 | 1013.2 |
| 20260506140546 | 50 | 307 | 4.0 | 11.0 | 0.00 | 0.89 | 0.15 | 78 | 1013.1 |
| 20260506140422 | 49 | 0 | 4.0 | 11.0 | 0.00 | 0.89 | 0.15 | 80 | 1013.0 |
| 20260506135315 | 49 | 0 | 5.0 | 11.0 | 0.00 | 0.89 | 0.15 | 79 | 1013.0 |
| 20260506134815 | 49 | 324 | 6.0 | 11.0 | 0.00 | 0.89 | 0.15 | 83 | 1013.0 |
| 20260506134314 | 48 | 5 | 7.0 | 11.0 | 0.00 | 0.89 | 0.15 | 82 | 1013.0 |
| 20260506133815 | 48 | 328 | 5.0 | 9.0 | 0.00 | 0.89 | 0.15 | 84 | 1013.1 |
| 20260506133315 | 48 | 318 | 4.0 | 9.0 | 0.00 | 0.89 | 0.15 | 86 | 1013.0 |
| 20260506132814 | 47 | 327 | 4.0 | 9.0 | 0.00 | 0.89 | 0.15 | 88 | 1013.0 |
| 20260506132314 | 47 | 0 | 3.0 | 9.0 | 0.00 | 0.89 | 0.15 | 89 | 1013.0 |
| 20260506132046 | 47 | 0 | 3.0 | 8.0 | 0.00 | 0.89 | 0.15 | 90 | 1013.0 |
| 20260506131315 | 46 | 0 | 4.0 | 8.0 | 0.00 | 0.89 | 0.15 | 90 | 1013.1 |
| 20260506130813 | 46 | 0 | 4.0 | 6.0 | 0.00 | 0.89 | 0.15 | 91 | 1013.0 |
| 20260506130312 | 46 | 0 | 4.0 | 6.0 | 0.00 | 0.89 | 0.15 | 91 | 1012.9 |
| 20260506130044 | 46 | 0 | 4.0 | 8.0 | 0.00 | 0.89 | 0.15 | 91 | 1012.8 |
| 20260506125543 | 45 | 0 | 4.0 | 8.0 | 0.00 | 0.89 | 0.15 | 92 | 1012.8 |
| 20260506124813 | 45 | 0 | 4.0 | 8.0 | 0.00 | 0.89 | 0.15 | 92 | 1012.7 |
| 20260506124312 | 45 | 0 | 4.0 | 8.0 | 0.00 | 0.89 | 0.15 | 93 | 1012.7 |
| 20260506124043 | 45 | 0 | 4.0 | 8.0 | 0.00 | 0.89 | 0.15 | 93 | 1012.8 |
| 20260506123312 | 44 | 0 | 4.0 | 8.0 | 0.00 | 0.89 | 0.15 | 93 | 1012.7 |
| 20260506122813 | 44 | 0 | 4.0 | 8.0 | 0.00 | 0.89 | 0.15 | 94 | 1012.5 |
| 20260506122308 | 44 | 0 | 2.0 | 5.0 | 0.00 | 0.89 | 0.15 | 94 | 1012.4 |
| 20260506121808 | 44 | 0 | 2.0 | 5.0 | 0.00 | 0.89 | 0.15 | 95 | 1012.3 |
| 20260506121308 | 44 | 0 | 3.0 | 7.0 | 0.00 | 0.89 | 0.15 | 95 | 1012.2 |
| 20260506121039 | 44 | 0 | 3.0 | 7.0 | 0.00 | 0.89 | 0.15 | 95 | 1012.2 |
| 20260506120309 | 44 | 0 | 3.0 | 7.0 | 0.00 | 0.89 | 0.15 | 95 | 1012.4 |
| 20260506115808 | 44 | 259 | 3.0 | 7.0 | 0.00 | 0.89 | 0.15 | 95 | 1012.3 |
| 20260506115307 | 44 | 272 | 3.0 | 7.0 | 0.00 | 0.89 | 0.15 | 95 | 1012.2 |
| 20260506114807 | 43 | 269 | 3.0 | 7.0 | 0.00 | 0.89 | 0.15 | 95 | 1012.0 |
| 20260506114307 | 43 | 280 | 3.0 | 6.0 | 0.00 | 0.89 | 0.15 | 95 | 1011.9 |
| 20260506113807 | 43 | 295 | 3.0 | 5.0 | 0.00 | 0.89 | 0.15 | 95 | 1011.7 |
| 20260506113306 | 43 | 300 | 3.0 | 4.0 | 0.00 | 0.89 | 0.15 | 95 | 1011.6 |
| 20260506112806 | 43 | 302 | 2.0 | 4.0 | 0.00 | 0.89 | 0.15 | 95 | 1011.6 |
| 20260506112306 | 43 | 315 | 2.0 | 4.0 | 0.00 | 0.89 | 0.15 | 96 | 1011.3 |
| 20260506111807 | 43 | 315 | 2.0 | 3.0 | 0.00 | 0.89 | 0.15 | 95 | 1011.3 |
| 20260506111304 | 43 | 315 | 2.0 | 3.0 | 0.00 | 0.89 | 0.15 | 95 | 1011.4 |
| 20260506110802 | 43 | 315 | 2.0 | 3.0 | 0.00 | 0.89 | 0.15 | 95 | 1011.2 |
| 20260506110303 | 43 | 315 | 2.0 | 3.0 | 0.00 | 0.89 | 0.15 | 95 | 1011.3 |
| 20260506105803 | 43 | 315 | 2.0 | 3.0 | 0.00 | 0.89 | 0.15 | 96 | 1011.2 |
| 20260506105300 | 43 | 315 | 1.0 | 2.0 | 0.00 | 0.89 | 0.15 | 95 | 1011.2 |
| 20260506104759 | 43 | 315 | 1.0 | 3.0 | 0.00 | 0.89 | 0.15 | 95 | 1011.2 |
| 20260506104526 | 43 | 315 | 2.0 | 3.0 | 0.00 | 0.89 | 0.15 | 95 | 1011.1 |
| 20260506103754 | 43 | 315 | 2.0 | 5.0 | 0.00 | 0.89 | 0.15 | 95 | 1011.3 |
| 20260506103255 | 43 | 315 | 1.0 | 5.0 | 0.00 | 0.89 | 0.15 | 95 | 1011.3 |
| 20260506102756 | 43 | 315 | 2.0 | 5.0 | 0.00 | 0.89 | 0.15 | 95 | 1011.1 |
| 20260506102250 | 43 | 315 | 3.0 | 5.0 | 0.00 | 0.89 | 0.15 | 95 | 1011.0 |
| 20260506101744 | 44 | 313 | 2.0 | 5.0 | 0.00 | 0.89 | 0.15 | 96 | 1010.9 |
| 20260506101243 | 44 | 309 | 2.0 | 4.0 | 0.00 | 0.89 | 0.15 | 96 | 1010.8 |
| 20260506100732 | 44 | 309 | 1.0 | 4.0 | 0.00 | 0.89 | 0.15 | 96 | 1010.9 |
| 20260506100225 | 44 | 311 | 2.0 | 4.0 | 0.00 | 0.89 | 0.15 | 96 | 1010.7 |
| 20260506095718 | 44 | 311 | 2.0 | 4.0 | 0.00 | 0.89 | 0.15 | 95 | 1011.0 |
| 20260506095443 | 44 | 322 | 2.0 | 4.0 | 0.00 | 0.89 | 0.15 | 95 | 1010.4 |
| 20260506094706 | 44 | 323 | 2.0 | 4.0 | 0.00 | 0.89 | 0.15 | 95 | 1010.3 |
| 20260506094158 | 44 | 339 | 2.0 | 4.0 | 0.00 | 0.89 | 0.15 | 95 | 1010.0 |
| 20260506093652 | 44 | 339 | 2.0 | 4.0 | 0.00 | 0.89 | 0.15 | 95 | 1010.4 |
| 20260506093416 | 44 | 339 | 2.0 | 4.0 | 0.00 | 0.89 | 0.15 | 95 | 1010.3 |
| 20260506092638 | 44 | 340 | 1.0 | 3.0 | 0.00 | 0.89 | 0.15 | 95 | 1010.4 |
| 20260506092402 | 44 | 340 | 0.0 | 3.0 | 0.00 | 0.89 | 0.15 | 95 | 1010.4 |
| 20260506091857 | 44 | 340 | 0.0 | 4.0 | 0.01 | 0.89 | 0.15 | 95 | 1010.2 |
| 20260506091120 | 44 | 339 | 0.0 | 4.0 | 0.01 | 0.89 | 0.15 | 95 | 1010.3 |